Location: Recife
(8.0585°S, 34.8848°W)
Time: 10:00:48
(UTC-03:00)

Explorer 7 - Pass Details

Date: 14 April 2026
Orbit: 427 x 536 km, 50.2° (Epoch: 14 May)

Event Time Altitude Azimuth Distance (km) Brightness Sun altitude
Rises 12:27:49 0° 207° (SSW) 2,556 10.2 65.6°
Reaches altitude 10° 12:30:02 10° 200° (SSW) 1,692 9.3 65.2°
Maximum altitude 12:33:42 42° 128° (SE) 730 7.7 64.5°
Drops below altitude 10° 12:37:28 10° 56° (NE) 1,739 9.4 63.8°
Sets 12:39:46 0° 49° (NE) 2,637 10.3 63.4°
